Weather History for Long Beach, CA

Change the Weather History Date:

Sunday, May 10, 2009

  Actual Average Record
Temperature  
Mean Temperature 64 °F 65 °F  
Max Temperature 70 °F 74 °F 90 °F (1960)
Min Temperature 58 °F 57 °F 49 °F (2003)
Degree Days  
Heating Degree Days 1 1  
Month to date heating degree days 3 19  
Since 1 July heating degree days 1098 1195  
Cooling Degree Days 0 2  
Month to date cooling degree days 23 20  
Year to date cooling degree days 98 67  
Growing Degree Days 14 (Base 50)    
Moisture  
Dew Point 56 °F    
Average Humidity 77    
Maximum Humidity 93    
Minimum Humidity 61    
Precipitation  
Precipitation 0.00 in 0.01 in 0.09 in (1980)
Month to date precipitation T 0.09  
Year to date precipitation 4.64 8.25  
Since 1 July precipitation 9.41 12.07  
Sea Level Pressure  
Sea Level Pressure 29.90 in    
Wind  
Wind Speed 5 mph (SSW)    
Max Wind Speed 12 mph    
Max Gust Speed 14 mph    
Visibility 8 miles    
Events      
T = Trace of Precipitation, MM = Missing Value Source: NWS Daily Summary

Daily Weather History Graph

Daily Weather History Graph

Search for Another Location

Airport:

Trip Planner

Search our weather history database for the weather conditions in past years. The results will help you decide how hot, cold, wet, or windy it might be!

Date:

Astronomy

May. 10, 2009 Rise Set
Actual Time 5:55 AM PDT 7:43 PM PDT
Civil Twilight 5:27 AM PDT 8:10 PM PDT
Nautical Twilight 4:55 AM PDT 8:43 PM PDT
Astronomical Twilight 4:20 AM PDT 9:18 PM PDT
Moon 9:41 PM PDT (5/10) 6:37 AM PDT (5/10)
Length of Visible Light 14h 42m
Length of Day
13h 48m
Full, 97% of the Moon is Illuminated
May 10
Full
May 17
Last Quarter
May 24
New
May 30
First Quarter
Jun 7
Full

Hourly Weather History & Observations

Time (PDT) Temp. Dew Point Humidity Pressure Visibility Wind Dir Wind Speed Gust Speed Precip Events Conditions
12:53 AM 60.1 °F 55.9 °F 86% 29.91 in 8.0 mi Calm Calm - N/A   Overcast
1:18 AM 60.8 °F 57.2 °F 88% 29.91 in 8.0 mi South 4.6 mph - N/A   Overcast
1:53 AM 60.1 °F 55.9 °F 86% 29.90 in 8.0 mi SE 6.9 mph - N/A   Overcast
2:10 AM 60.8 °F 57.2 °F 88% 29.89 in 8.0 mi Calm Calm - N/A   Overcast
2:53 AM 61.0 °F 57.0 °F 87% 29.89 in 8.0 mi SSE 3.5 mph - N/A   Overcast
3:53 AM 61.0 °F 55.9 °F 83% 29.89 in 9.0 mi East 3.5 mph - N/A   Overcast
4:53 AM 60.1 °F 55.9 °F 86% 29.89 in 9.0 mi SE 4.6 mph - N/A   Overcast
5:53 AM 60.1 °F 55.0 °F 83% 29.89 in 9.0 mi Variable 5.8 mph - N/A   Overcast
6:53 AM 60.1 °F 55.0 °F 83% 29.91 in 9.0 mi East 4.6 mph - N/A   Overcast
7:53 AM 61.0 °F 55.0 °F 81% 29.92 in 9.0 mi Calm Calm - N/A   Overcast
8:53 AM 61.0 °F 55.0 °F 81% 29.93 in 8.0 mi South 4.6 mph - N/A   Overcast
9:53 AM 61.0 °F 55.9 °F 83% 29.94 in 9.0 mi South 4.6 mph - N/A   Overcast
10:53 AM 62.1 °F 55.9 °F 80% 29.95 in 10.0 mi South 6.9 mph - N/A   Overcast
11:53 AM 63.0 °F 55.9 °F 78% 29.94 in 9.0 mi Calm Calm - N/A   Overcast
12:18 PM 64.4 °F 55.4 °F 73% 29.93 in 10.0 mi Calm Calm - N/A   Overcast
12:53 PM 66.0 °F 55.9 °F 70% 29.93 in 10.0 mi Variable 3.5 mph - N/A   Overcast
1:30 PM 68.0 °F 55.4 °F 64% 29.92 in 10.0 mi SW 9.2 mph - N/A   Scattered Clouds
1:53 PM 66.9 °F 55.0 °F 66% 29.91 in 10.0 mi Variable 5.8 mph - N/A   Clear
2:53 PM 69.1 °F 55.0 °F 61% 29.90 in 10.0 mi SSW 10.4 mph - N/A   Clear
3:53 PM 69.1 °F 55.0 °F 61% 29.88 in 10.0 mi South 8.1 mph - N/A   Clear
4:53 PM 68.0 °F 55.9 °F 65% 29.86 in 10.0 mi South 8.1 mph - N/A   Clear
5:53 PM 68.0 °F 55.9 °F 65% 29.86 in 10.0 mi SSW 6.9 mph - N/A   Clear
6:53 PM 68.0 °F 57.0 °F 68% 29.85 in 6.0 mi WNW 6.9 mph - N/A   Haze
7:53 PM 63.0 °F 55.9 °F 78% 29.86 in 5.0 mi WNW 8.1 mph - N/A   Haze
8:53 PM 61.0 °F 55.9 °F 83% 29.88 in 6.0 mi NW 9.2 mph - N/A   Haze
9:53 PM 60.1 °F 55.9 °F 86% 29.89 in 6.0 mi NW 8.1 mph - N/A   Clear
10:53 PM 59.0 °F 55.0 °F 87% 29.89 in 6.0 mi NW 4.6 mph - N/A   Clear
11:53 PM 57.9 °F 55.0 °F 90% 29.89 in 5.0 mi NW 4.6 mph - N/A   Clear